TimeMST,TemperatureF,Dew PointF,Humidity,Sea Level PressureIn,VisibilityMPH,Wind Direction,Wind SpeedMPH,Gust SpeedMPH,PrecipitationIn,Events,Conditions,WindDirDegrees,DateUTC
12:56 AM,12.0,9.0,88,30.14,-9999.0,NNW,10.4,-,N/A,,Unknown,330,2014-01-05 07:56:00
1:56 AM,10.0,7.0,87,30.15,-9999.0,NW,10.4,-,N/A,,Unknown,320,2014-01-05 08:56:00
2:56 AM,7.0,3.9,87,30.17,-9999.0,NW,9.2,-,N/A,,Unknown,310,2014-01-05 09:56:00
3:56 AM,1.9,-2.0,83,30.22,-9999.0,WNW,6.9,-,N/A,,Unknown,290,2014-01-05 10:56:00
4:56 AM,-0.9,-5.1,83,30.23,-9999.0,NW,8.1,-,N/A,,Unknown,310,2014-01-05 11:56:00
5:56 AM,1.9,-2.0,83,30.23,-9999.0,WNW,11.5,-,N/A,,Unknown,300,2014-01-05 12:56:00
6:56 AM,-2.0,-6.0,83,30.28,-9999.0,WNW,10.4,-,N/A,,Unknown,300,2014-01-05 13:56:00
7:56 AM,1.9,-2.0,83,30.30,-9999.0,WNW,6.9,-,N/A,,Unknown,300,2014-01-05 14:56:00
8:56 AM,10.9,7.0,84,30.30,-9999.0,North,5.8,-,N/A,,Unknown,10,2014-01-05 15:56:00
9:56 AM,12.9,6.1,74,30.33,-9999.0,ENE,6.9,-,N/A,,Unknown,60,2014-01-05 16:56:00
10:56 AM,12.9,5.0,71,30.33,-9999.0,NE,8.1,-,N/A,,Unknown,50,2014-01-05 17:56:00
11:56 AM,12.9,3.9,67,30.30,-9999.0,ENE,3.5,-,N/A,,Unknown,70,2014-01-05 18:56:00
12:56 PM,14.0,6.1,71,30.33,-9999.0,NNE,8.1,-,N/A,,Unknown,30,2014-01-05 19:56:00
1:56 PM,12.0,3.9,70,30.38,-9999.0,NNE,13.8,-,N/A,,Unknown,20,2014-01-05 20:56:00
2:56 PM,10.9,3.9,73,30.43,-9999.0,North,11.5,-,N/A,,Unknown,360,2014-01-05 21:56:00
3:56 PM,10.0,3.0,73,30.47,-9999.0,North,10.4,-,N/A,,Unknown,10,2014-01-05 22:56:00
4:56 PM,9.0,3.0,77,30.51,-9999.0,North,9.2,-,N/A,,Unknown,360,2014-01-05 23:56:00
5:56 PM,9.0,3.9,80,30.52,-9999.0,NNW,5.8,-,N/A,,Unknown,330,2014-01-06 00:56:00
6:56 PM,9.0,5.0,84,30.57,-9999.0,North,8.1,-,N/A,,Unknown,360,2014-01-06 01:56:00
7:56 PM,8.1,3.9,83,30.59,-9999.0,NW,8.1,-,N/A,,Unknown,310,2014-01-06 02:56:00
8:56 PM,7.0,3.0,84,30.58,-9999.0,NW,5.8,-,N/A,,Unknown,320,2014-01-06 03:56:00
9:56 PM,10.0,3.0,73,30.57,-9999.0,North,9.2,-,N/A,,Unknown,350,2014-01-06 04:56:00
10:56 PM,8.1,3.0,80,30.56,-9999.0,NNW,8.1,-,N/A,,Unknown,340,2014-01-06 05:56:00
11:56 PM,3.0,-0.9,84,30.56,-9999.0,North,6.9,-,N/A,,Unknown,350,2014-01-06 06:56:00